Regional Weather Roundup
Issued by NWS

Home | Current Version | Previous Version | Text Only | Print | Product List | Glossary Off
Versions: 1 2 3 4 5 6 7 8 9 10 11 12 13 14 15 16 17 18 19 20 21 22 23 24 25 26 27 28

000
ASUS45 KCYS 261010
RWRWY

WYOMING REGIONAL WEATHER ROUNDUP
NATIONAL WEATHER SERVICE CHEYENNE WY
400 AM MDT FRI AUG 26 2016

NOTE:  "FAIR" INDICATES FEW OR NO CLOUDS BELOW 12,000 FEET
WITH NO SIGNIFICANT WEATHER AND/OR OBSTRUCTIONS TO VISIBILITY.

WYZ001-261100-
YELLOWSTONE NATIONAL PARK

CITY           SKY/WX    TMP DP  RH WIND       PRES   REMARKS
LK YELLOWSTONE   N/A     43  36  76 NW3       30.28F
W YELLOWSTONE  NOT AVBL

$$
WYZ002>013-054>058-071-098>099-261100-
NORTHERN WYOMING

CITY           SKY/WX    TMP DP  RH WIND       PRES   REMARKS
JACKSON        FAIR      43  34  70 CALM      30.21S
CODY           FAIR      52  43  71 SW5       30.16S
GREYBULL       FAIR      54  46  74 CALM      30.12R
WORLAND        FAIR      49  45  86 S8        30.12F
SHERIDAN       FAIR      49  43  80 CALM      30.12R
BUFFALO        FAIR      49  40  71 NW7       30.14S
GILLETTE       FAIR      54  48  80 S16       30.13F
HULETT         FAIR      54  45  71 SW5       30.16F
NEWCASTLE      RAIN      52  50  93 E7        30.21F

$$
WYZ014>020-022>026-101>103-261100-
CENTRAL WYOMING

CITY           SKY/WX    TMP DP  RH WIND       PRES   REMARKS
BIG PINEY      FAIR      32  30  92 CALM      30.24S
PINEDALE       FAIR      30  30 100 W7        30.25F WCI  23
DUBOIS         FAIR      37  32  81 W9        30.25  WCI  31
LANDER         FAIR      45  39  79 S5        30.18F
RIVERTON       FAIR      47  47 100 W9        30.18F
CASPER         FAIR      48  46  93 W9        30.16R
DOUGLAS        FAIR      48  47  96 SE8       30.16F

$$
WYZ021-027>030-104>119-261100-
SOUTHERN WYOMING

CITY           SKY/WX    TMP DP  RH WIND       PRES   REMARKS
EVANSTON       FAIR      48  31  51 E10       30.20F
FORT BRIDGER   FAIR      46  34  62 CALM      30.24F
ROCK SPRINGS   FAIR      47  38  71 CALM      30.21F
DIXON          FAIR      46  34  64 E5        30.25F
RAWLINS        FAIR      43  36  76 CALM      30.24F
SARATOGA       FAIR      41  37  87 E6        30.26F
LARAMIE        FAIR      50  40  68 S3        30.22F
CHEYENNE       CLOUDY    51  46  83 SE8       30.19F
TORRINGTON     LGT RAIN  54  50  86 E10       30.14F
PINE BLUFFS    FAIR      48  43  81 W9        30.18S

$$




USA.gov is the U.S. government's official web portal to all federal, state and local government web resources and services.